DMSP 5D-2 F13 DEB, 42257

Orbit data source: Space-Track

DMSP 5D-2 F13 DEB, 42257 is space debris in SSO originally from a launch on Fri, 24 Mar 1995 UTC launched from the Air Force Western Test Range (AFWTR). Debris objects in space refer to the collection of defunct objects orbiting the Earth. Examples of debris include non-operational satellites, rocket bodies, and fragments generated from explosions, collisions, or faulty payload assembly.

Loading next visibility...
DMSP 5D-2 F13 DEB details
Identifier
42257, 1995-015FX
Orbit
SSO
Last TLE update18 hours ago
Origin
Flag of USUSAF SMC (US)
ManufacturerUnknown
MissionSpacecraft
Bus & MotorUnknown
MassUnknown
Launch date (UTC)
1995-03-24 (30 years ago)
Launch vehicleUnknown
Launch site
Air Force Western Test Range (AFWTR)
Object type
Payload
Rocket body
Debris
Shape & HBRUnknown
Radar Cross SectionSmall (<0.1 m²)

Expand to show TLE details & history

TLE from 18 hours ago
0 DMSP 5D-2 F13 DEB
1 42257U 95015FX  24346.15209567  .00194385  00000-0  13710-1 0  9997
2 42257  98.7374 135.8603 0016326 174.2107 185.9307 15.03879224479729
Epoch: 2024-12-11T03:39Z
Definitive object data (Epoch: 2024-12-11T03:39:01.065Z)
Latitude-0.00005°
Longitude0.75499°
Altitude569.236 km
Speed7.57 km/s
True Right ascension09h 03m 26s
True Declination0° 00' 00"
Sunlit
Object was in full shadow at TLE epoch
Visualization TLE readout
Latitude76.99623°
Longitude-39.84461°
Altitude567.418 km
Speed7.584 km/s
Apparent Right ascension07h 34m 49s
Apparent Declination22° 48' 28"
Sunlit
Object is in full shadow
Visualization observer readout
Local Sidereal Time19:58:04
Azimuth6.015° NNE
Elevation-27.042°
Doppler factor1
Orbital elements
Apogee altitude563.311 km
Perigee altitude540.683 km
Semi-major axis6,930.134 km
Eccentricity0.0016326
Inclination98.7374°
RAAN135.8603°
Arg. of periapsis174.2107°
True anomaly185.91141°
Mean anomaly185.9307°
Eccentric anomaly185.92105°
Mean motion3.7621 °/min
BSTAR0.01371
Orbital period95.69 mins
Loading maneuver chart data...

DMSP 5D-2 F13 DEB Visibility forecast

Observer location: undefined°, undefined

Span
Click to sort rows by Start time (UTC) header in descending order
Start Az.
Max El. time (UTC)
Max El. Az.
Max El.
End time (UTC)
End Az.
7 mins2024-12-11 23:22:12.181Z5.089° NNE2024-12-11 23:25:12.181Z315.75° NNW40.179°2024-12-11 23:29:12.181Z206.699° SW
6 mins2024-12-12 10:07:12.181Z160.839° S2024-12-12 10:10:12.181Z21.676° NNE44.059°2024-12-12 10:13:12.181Z348.974° N
|